Wind_Speed
33 35 32 30 28 26 24 22 23 21 21 22 23 24 25 24 23 24 21 22 20 19 18 18 17 17 16 16 16 16 17 17 16 14 12 11 11 11 11 12 14 16 17 20 21 21 20 21 22
25 33 35 33 31 28 26 25 25 22 19 20 22 24 24 26 23 22 23 23 22 20 18 18 19 19 18 17 17 17 17 16 15 14 12 11 11 10 11 12 14 17 18 21 22 22 21 21 21
24 26 33 37 34 27 28 27 27 26 22 19 20 23 24 24 24 24 23 23 24 23 21 19 19 21 21 20 19 18 17 15 14 13 13 12 12 11 11 13 14 17 18 19 22 23 23 22 23
28 27 27 31 33 30 29 31 29 30 27 21 21 22 23 23 24 26 27 27 26 23 22 20 22 22 22 21 20 18 17 14 13 14 14 13 13 12 13 15 14 15 16 15 17 20 22 24 25
35 32 32 25 21 28 33 34 32 31 29 25 23 23 23 24 25 27 27 28 26 23 23 23 23 24 23 21 19 18 17 15 14 15 14 13 15 13 14 15 16 18 21 20 20 21 21 21 23
40 36 36 29 23 26 32 38 35 32 32 29 28 27 25 24 26 27 27 27 26 25 24 23 23 23 22 20 19 19 17 16 16 16 14 13 14 14 14 14 16 18 20 22 24 26 26 26 28
40 39 37 33 29 32 30 35 38 36 34 33 33 29 25 26 26 26 26 24 24 25 23 22 21 21 22 21 20 20 19 19 17 16 14 14 14 15 16 15 16 17 20 21 23 24 26 27 29
39 39 35 25 22 29 34 35 35 38 38 37 36 33 27 27 28 28 26 25 22 21 22 22 21 21 22 22 22 22 21 21 19 16 14 13 13 14 16 15 17 16 18 19 20 22 24 24 25
36 38 28 21 21 20 32 37 40 36 38 42 38 35 32 30 30 30 27 24 23 20 21 22 23 21 20 22 21 22 22 23 21 18 17 15 13 11 13 15 15 14 16 17 19 21 23 24 24
35 35 27 23 24 26 31 36 40 41 38 41 41 37 37 36 33 31 28 24 23 23 22 22 23 21 21 22 22 23 23 23 22 21 21 18 17 15 18 19 19 21 23 26 26 26 27 27 28
36 37 33 28 28 32 34 37 41 41 38 38 42 42 40 39 35 31 29 27 26 26 23 25 25 24 25 24 22 23 24 24 25 24 23 22 19 20 22 24 26 27 30 33 35 36 36 35 34
41 41 38 34 33 35 36 37 41 39 34 40 40 42 42 40 37 32 30 28 30 29 26 25 24 27 26 24 22 21 25 24 25 25 25 23 23 23 25 26 28 30 33 36 38 38 36 34 33
35 42 45 43 40 38 38 35 36 37 34 37 40 40 41 41 39 34 31 30 30 28 29 29 29 31 29 26 23 22 23 24 24 27 27 24 24 25 26 27 29 31 33 33 33 32 33 32 32
33 35 38 47 47 44 44 41 42 32 35 38 37 38 38 42 40 39 34 31 30 26 27 31 33 33 31 28 26 22 21 21 23 26 27 26 25 25 25 28 28 29 33 34 33 31 29 29 31
31 36 38 37 40 49 50 48 42 35 38 38 39 36 38 37 41 40 39 33 28 27 31 30 33 33 31 29 26 23 20 21 23 24 26 28 25 24 26 28 29 31 33 31 30 29 29 31 33
35 36 37 37 38 44 53 49 43 40 41 41 41 39 36 37 37 42 42 36 30 27 32 31 30 31 31 30 27 23 22 22 22 25 26 27 26 25 27 28 31 33 33 30 30 31 31 33 36
36 36 37 41 41 43 50 55 49 46 44 43 41 40 35 33 36 40 44 41 34 30 30 32 30 31 30 29 27 24 24 24 24 26 27 27 27 27 29 31 34 34 30 28 30 32 35 35 38
39 41 42 44 46 48 49 52 52 49 46 44 43 40 35 34 33 38 44 42 37 35 31 29 33 29 29 28 28 26 26 26 26 27 26 28 28 30 32 34 36 33 31 32 33 35 37 38 41
43 44 45 45 49 52 52 52 51 51 51 46 42 40 38 33 35 40 42 41 40 37 32 31 33 31 27 27 28 28 30 29 27 26 28 29 30 32 33 35 34 32 33 36 37 39 40 41 43
45 47 48 46 46 53 54 55 53 52 52 49 46 44 39 36 37 38 38 38 42 38 35 32 33 33 27 27 28 28 31 30 28 28 29 30 32 32 33 34 33 34 36 38 40 41 43 45 46
48 49 50 50 49 50 54 54 56 51 52 51 48 45 43 39 41 42 38 36 39 40 35 35 33 33 30 28 28 27 28 30 33 31 31 32 33 33 34 35 36 37 39 41 43 44 46 48 49
52 51 52 53 52 50 51 55 54 56 53 51 49 48 46 42 41 42 40 36 36 40 38 35 33 33 33 29 27 27 28 29 32 33 34 34 34 35 37 39 40 40 43 44 45 47 49 48 47
52 52 54 55 56 55 53 58 51 50 52 50 49 51 49 46 43 42 39 38 36 41 39 36 34 33 32 29 27 27 27 27 29 31 33 34 35 37 40 42 43 44 45 45 48 49 49 47 48
54 55 57 57 58 62 59 61 53 44 43 46 49 49 49 46 44 41 39 38 37 39 37 36 36 33 31 29 28 29 28 28 30 31 34 35 37 39 42 44 44 45 46 48 50 49 49 49 51
52 53 54 58 61 66 66 65 54 50 43 43 46 48 46 47 45 42 39 37 37 38 36 36 37 34 32 30 30 30 28 28 30 33 34 35 38 42 43 44 44 46 48 49 50 50 51 52 54
51 43 45 51 56 59 60 68 60 51 52 47 43 44 48 45 42 41 39 39 41 39 38 38 36 35 32 31 29 29 28 29 31 33 35 38 41 43 43 43 45 47 49 49 50 51 53 55 58
36 45 41 42 45 48 52 60 63 61 50 44 46 42 47 45 41 40 39 39 41 40 39 38 36 35 30 31 30 30 28 30 34 35 37 40 40 40 42 44 47 48 49 50 51 53 56 59 62
28 30 35 45 45 48 46 43 47 51 43 38 38 45 48 45 40 37 39 39 37 39 39 38 36 35 32 32 32 32 31 32 35 36 36 37 39 41 43 46 47 49 50 51 53 56 60 62 62
35 35 35 37 45 50 48 45 32 36 33 39 36 43 39 45 34 36 40 40 38 41 40 37 36 33 33 32 33 33 33 32 32 33 35 37 40 42 45 47 48 49 51 54 57 59 60 62 65
31 38 40 41 42 45 46 34 32 32 30 36 38 44 33 35 34 35 40 39 41 40 38 37 35 33 33 32 33 33 31 31 32 34 36 38 41 44 46 47 48 51 54 57 57 60 61 66 69
Wind_Direction
243 242 245 244 244 244 249 252 256 255 252 248 246 246 252 256 261 265 264 267 265 264 261 262 268 271 274 278 283 289 294 299 299 298 299 299 294 294 287 282 277 273 271 271 271 274 274 276 275
246 242 243 243 244 244 245 250 257 259 262 262 256 248 247 251 258 259 264 265 264 266 267 269 270 272 275 278 282 288 291 293 296 296 289 285 283 282 283 283 285 281 280 273 271 273 274 274 273
253 250 241 242 245 245 246 246 252 258 258 258 262 260 252 249 255 257 258 262 263 264 264 267 270 275 278 281 283 284 286 289 293 292 288 278 274 276 278 279 283 283 286 287 282 275 272 271 271
253 255 253 248 245 247 247 245 245 251 253 251 255 258 254 251 252 253 255 255 254 256 262 266 270 270 271 275 276 276 278 282 287 290 287 281 277 280 276 273 279 285 288 288 287 284 279 276 275
254 254 256 255 255 250 247 248 244 248 251 250 251 254 254 251 252 255 255 256 257 251 253 259 263 268 271 270 267 266 269 272 275 276 279 277 278 276 275 278 277 276 278 284 284 286 286 286 284
251 253 256 258 246 247 247 247 245 246 248 248 248 250 254 253 254 256 255 256 255 252 251 255 262 266 268 269 265 262 261 263 266 270 273 276 278 281 279 281 282 284 282 281 281 281 283 283 283
251 253 257 256 244 243 248 250 250 247 247 245 245 246 251 256 256 258 257 251 248 254 255 254 257 261 263 262 258 252 253 257 259 265 272 274 276 279 281 283 283 286 287 285 284 284 284 285 284
250 251 254 252 244 237 246 250 250 247 246 247 247 246 245 250 256 258 259 253 244 246 253 254 252 258 263 264 259 252 250 252 253 260 268 270 275 277 280 284 285 287 288 288 288 291 290 290 291
251 251 250 246 241 234 241 247 248 247 246 246 245 245 245 243 248 253 254 254 250 245 246 251 258 264 272 272 263 253 250 250 252 256 262 267 268 275 280 280 281 285 290 294 300 299 297 293 291
256 256 252 252 240 231 237 246 250 248 244 244 244 242 242 241 242 245 249 247 247 244 247 255 258 265 274 276 268 251 251 249 251 255 260 265 269 278 281 283 282 286 289 290 294 294 296 297 292
256 256 252 250 243 239 239 245 250 252 249 249 247 244 243 245 243 245 245 242 238 242 242 249 256 262 267 274 273 252 249 251 251 256 259 264 272 280 285 287 292 295 297 298 298 298 296 296 294
258 258 254 252 249 245 244 246 251 255 255 249 249 249 246 247 246 244 246 243 241 240 242 248 253 261 267 273 275 264 247 254 253 258 262 265 272 279 283 288 292 295 298 298 297 296 295 295 291
262 258 257 253 253 252 246 248 256 258 259 256 251 250 248 245 245 245 246 245 244 245 245 246 248 253 261 267 270 260 250 255 256 258 263 268 273 277 283 288 292 296 297 298 296 294 294 289 288
265 261 260 256 252 252 252 250 254 260 264 261 257 251 250 244 246 244 244 242 243 246 247 244 248 253 258 262 268 259 254 254 259 260 265 268 273 279 284 287 290 295 299 296 295 297 295 288 288
270 268 261 261 254 249 250 249 253 251 252 254 256 254 250 248 244 246 243 242 242 242 245 246 247 249 254 258 265 255 253 253 256 263 266 271 272 275 279 284 286 292 297 293 291 290 290 292 293
272 275 270 262 258 248 246 244 249 254 250 248 249 250 247 245 244 247 245 244 242 236 240 246 252 254 256 260 264 250 250 252 259 263 267 271 272 272 277 279 284 292 296 288 285 286 289 293 294
275 276 271 261 256 251 245 243 242 248 248 246 248 251 248 247 242 245 248 244 244 244 241 242 248 253 253 258 262 247 248 251 256 261 264 268 268 273 276 279 285 293 291 289 285 286 289 292 293
273 273 273 266 253 250 247 245 243 244 247 247 246 247 248 248 245 242 252 246 245 248 246 246 242 249 250 253 255 250 247 248 252 258 262 264 267 272 276 281 288 288 284 284 287 289 290 293 293
277 275 273 271 260 251 251 248 245 244 246 246 246 247 247 249 245 239 248 247 245 248 250 249 245 247 247 247 248 248 247 245 250 257 260 264 268 273 278 286 288 283 282 285 289 291 293 293 295
274 273 273 270 263 258 248 247 246 242 241 245 247 249 246 246 246 242 250 248 239 244 248 247 247 248 252 247 248 252 250 246 250 255 261 266 271 277 282 289 286 283 285 288 291 293 294 296 297
273 270 269 268 263 260 258 250 245 243 240 240 244 247 245 246 246 245 244 245 239 240 244 246 248 246 249 250 248 254 256 250 250 255 263 268 272 277 283 288 286 286 290 292 292 294 296 298 298
273 269 266 264 261 259 256 259 243 242 241 241 242 245 245 247 245 248 246 241 240 238 241 246 249 247 246 250 248 251 253 252 252 257 262 267 272 276 281 286 287 289 291 291 294 296 297 297 297
273 271 268 266 264 260 257 256 254 241 241 244 245 246 246 248 248 249 245 236 238 238 240 244 248 248 246 248 249 253 254 255 255 257 261 267 273 277 281 285 287 289 291 294 297 297 298 299 298
271 268 265 263 261 260 257 256 250 253 243 241 246 244 245 244 244 243 241 236 236 234 237 243 245 247 247 249 254 255 254 258 259 261 265 270 274 277 281 285 289 291 294 297 298 299 300 300 299
269 267 264 262 259 261 257 255 256 254 247 238 238 242 242 242 241 241 235 233 232 231 234 240 245 245 247 248 251 255 256 260 264 265 268 271 274 277 282 287 290 293 297 298 299 300 301 300 299
261 257 258 261 261 260 260 253 248 249 247 238 231 233 236 238 239 239 233 227 225 227 229 236 241 243 246 245 248 253 256 262 264 266 268 270 274 280 286 288 293 297 297 298 300 300 300 299 299
281 267 255 261 263 267 260 253 248 244 244 239 229 228 232 234 234 234 226 225 225 224 226 234 239 241 244 245 248 254 257 261 264 267 270 274 278 284 287 292 295 295 297 299 300 300 300 300 300
293 277 263 255 258 260 263 266 261 251 245 236 222 218 222 224 227 224 218 216 219 223 226 232 238 240 243 247 251 256 260 263 266 271 275 280 284 288 292 293 294 297 298 299 300 300 301 301 303
282 283 275 261 253 258 266 263 251 247 232 223 214 212 217 219 219 212 209 212 216 222 226 231 238 240 243 248 252 257 261 266 271 275 280 284 288 290 291 293 296 298 299 299 301 302 303 303 305
288 281 272 269 266 265 269 272 240 239 224 210 202 204 201 212 214 209 205 208 213 222 229 234 237 239 242 248 254 261 264 268 275 278 282 286 288 290 292 296 298 298 299 302 303 304 305 306 306
Height
5807 5810 5811 5814 5818 5819 5820 5822 5821 5824 5825 5826 5826 5827 5829 5831 5833 5835 5835 5835 5837 5840 5841 5841 5842 5843 5843 5843 5843 5842 5842 5843 5843 5842 5841 5841 5841 5841 5842 5844 5845 5845 5845 5845 5845 5846 5846 5846 5846
5802 5804 5805 5808 5811 5814 5816 5818 5819 5821 5823 5824 5825 5824 5826 5827 5829 5830 5832 5832 5834 5835 5837 5838 5838 5839 5839 5839 5839 5839 5839 5839 5839 5839 5839 5838 5839 5839 5840 5840 5841 5842 5842 5842 5842 5842 5842 5842 5842
5797 5798 5801 5802 5806 5811 5811 5813 5814 5816 5819 5821 5822 5823 5824 5824 5826 5827 5828 5829 5830 5832 5833 5834 5835 5836 5836 5836 5836 5836 5836 5836 5836 5836 5836 5837 5837 5836 5837 5838 5838 5839 5839 5839 5839 5838 5839 5838 5838
5792 5793 5796 5796 5802 5805 5807 5807 5810 5810 5815 5817 5818 5819 5821 5822 5822 5823 5824 5825 5826 5827 5829 5830 5831 5832 5832 5833 5833 5833 5833 5833 5833 5833 5833 5833 5834 5833 5834 5835 5835 5836 5835 5835 5835 5834 5834 5833 5833
5785 5787 5788 5793 5799 5800 5799 5801 5804 5806 5809 5812 5814 5815 5817 5818 5819 5819 5820 5821 5823 5823 5824 5826 5826 5827 5828 5829 5829 5829 5830 5831 5831 5831 5831 5831 5831 5830 5830 5831 5832 5832 5832 5832 5831 5831 5830 5829 5829
5778 5782 5782 5788 5794 5793 5792 5794 5798 5801 5804 5806 5808 5810 5812 5814 5816 5816 5817 5817 5819 5820 5821 5822 5823 5824 5824 5825 5825 5826 5826 5827 5828 5828 5828 5828 5827 5827 5827 5827 5828 5828 5829 5828 5828 5827 5826 5825 5825
5772 5774 5776 5782 5788 5787 5788 5788 5791 5794 5797 5799 5802 5804 5807 5808 5810 5811 5813 5813 5815 5817 5818 5818 5819 5819 5820 5820 5821 5821 5823 5823 5824 5825 5825 5824 5824 5824 5824 5824 5824 5824 5825 5824 5824 5823 5822 5821 5821
5765 5766 5771 5777 5781 5784 5782 5783 5784 5787 5791 5792 5796 5799 5802 5803 5805 5806 5808 5810 5811 5813 5814 5815 5815 5815 5815 5816 5817 5817 5818 5819 5820 5821 5821 5821 5821 5821 5821 5820 5820 5819 5820 5819 5819 5818 5817 5816 5815
5758 5759 5768 5772 5775 5779 5777 5776 5777 5780 5784 5785 5788 5792 5795 5797 5799 5800 5803 5806 5807 5808 5809 5810 5811 5812 5811 5811 5812 5813 5814 5815 5816 5816 5817 5817 5818 5818 5818 5817 5817 5816 5816 5815 5814 5813 5812 5811 5810
5752 5755 5762 5766 5768 5771 5769 5768 5769 5773 5776 5778 5781 5785 5787 5789 5791 5794 5798 5800 5802 5803 5804 5806 5806 5807 5807 5807 5807 5809 5810 5811 5811 5812 5813 5813 5814 5814 5814 5814 5813 5812 5812 5811 5810 5809 5808 5806 5805
5746 5749 5754 5759 5761 5763 5763 5763 5761 5764 5770 5773 5773 5776 5780 5783 5786 5789 5792 5794 5795 5798 5799 5799 5801 5801 5801 5802 5802 5803 5805 5807 5807 5807 5808 5808 5809 5809 5809 5809 5808 5807 5806 5805 5804 5803 5802 5800 5798
5737 5742 5747 5752 5753 5755 5757 5757 5755 5758 5764 5765 5768 5769 5774 5778 5781 5784 5786 5788 5789 5791 5794 5794 5795 5796 5796 5797 5797 5798 5800 5801 5803 5803 5804 5804 5804 5804 5805 5804 5803 5802 5800 5799 5797 5796 5795 5793 5792
5731 5735 5738 5743 5746 5748 5750 5751 5752 5753 5758 5759 5761 5763 5767 5770 5774 5778 5780 5782 5784 5786 5787 5788 5789 5789 5790 5791 5791 5793 5794 5796 5797 5798 5798 5799 5800 5800 5800 5799 5798 5796 5794 5792 5791 5789 5788 5786 5785
5725 5727 5730 5733 5737 5740 5742 5745 5742 5753 5751 5751 5753 5756 5759 5762 5765 5770 5774 5776 5778 5781 5781 5780 5782 5783 5784 5785 5785 5787 5789 5791 5792 5792 5793 5795 5795 5795 5794 5794 5792 5790 5788 5786 5785 5783 5781 5779 5778
5718 5719 5720 5723 5727 5730 5730 5735 5738 5743 5742 5742 5744 5749 5752 5756 5758 5762 5766 5770 5773 5774 5774 5775 5775 5777 5778 5779 5781 5782 5784 5785 5786 5787 5787 5788 5789 5789 5789 5788 5786 5784 5782 5780 5779 5777 5775 5774 5772
5710 5711 5713 5715 5716 5719 5719 5728 5730 5732 5733 5735 5736 5738 5743 5748 5752 5754 5758 5763 5766 5767 5767 5769 5769 5771 5772 5774 5775 5777 5778 5779 5781 5781 5782 5782 5783 5783 5783 5782 5780 5778 5776 5775 5773 5772 5770 5768 5765
5702 5703 5703 5704 5705 5706 5708 5712 5720 5721 5724 5728 5730 5732 5735 5739 5744 5747 5749 5754 5759 5761 5762 5762 5764 5765 5766 5768 5769 5771 5772 5774 5775 5775 5776 5777 5777 5776 5776 5775 5774 5772 5770 5768 5767 5765 5763 5760 5757
5692 5692 5692 5692 5695 5695 5698 5699 5708 5712 5714 5720 5723 5726 5729 5732 5737 5739 5740 5746 5752 5753 5755 5756 5758 5759 5760 5761 5763 5764 5766 5768 5769 5770 5771 5772 5771 5771 5770 5769 5768 5765 5763 5762 5759 5757 5755 5753 5750
5682 5682 5681 5682 5683 5685 5688 5690 5697 5703 5705 5711 5715 5719 5722 5726 5728 5730 5732 5738 5744 5746 5748 5749 5750 5752 5754 5756 5757 5757 5759 5761 5763 5765 5766 5765 5765 5765 5763 5762 5759 5758 5756 5755 5752 5749 5746 5744 5741
5672 5670 5671 5672 5673 5671 5676 5677 5683 5689 5696 5702 5706 5710 5714 5718 5719 5722 5725 5730 5735 5738 5741 5743 5743 5745 5748 5749 5750 5751 5752 5755 5757 5759 5759 5759 5758 5757 5755 5754 5752 5750 5748 5746 5743 5740 5736 5733 5729
5660 5659 5658 5658 5659 5660 5660 5664 5671 5680 5683 5690 5696 5701 5704 5708 5710 5711 5716 5722 5726 5730 5733 5736 5737 5739 5742 5743 5744 5745 5747 5749 5750 5751 5751 5751 5750 5749 5748 5746 5745 5742 5740 5737 5734 5730 5726 5721 5717
5646 5646 5645 5644 5643 5646 5650 5645 5659 5666 5673 5680 5687 5691 5695 5698 5702 5703 5708 5713 5718 5721 5724 5728 5730 5732 5735 5737 5738 5739 5740 5741 5742 5743 5743 5743 5743 5742 5740 5739 5736 5733 5731 5728 5724 5720 5715 5711 5706
5634 5632 5631 5630 5629 5631 5637 5632 5641 5656 5664 5671 5676 5681 5685 5689 5693 5696 5700 5706 5709 5713 5717 5720 5723 5725 5727 5729 5731 5732 5733 5734 5734 5735 5735 5736 5735 5734 5732 5730 5727 5724 5721 5717 5713 5708 5703 5698 5694
5618 5618 5616 5615 5615 5615 5622 5621 5632 5645 5656 5663 5664 5670 5675 5679 5682 5687 5693 5697 5701 5706 5710 5713 5715 5718 5720 5722 5724 5725 5726 5726 5727 5727 5728 5728 5727 5725 5723 5721 5718 5714 5711 5707 5701 5696 5691 5686 5682
5605 5603 5601 5599 5597 5601 5602 5607 5625 5632 5642 5647 5652 5658 5664 5668 5672 5676 5683 5689 5693 5698 5703 5706 5709 5711 5713 5715 5717 5718 5718 5719 5719 5719 5719 5719 5718 5716 5714 5711 5708 5704 5700 5695 5690 5685 5680 5674 5669
5588 5591 5589 5583 5583 5585 5586 5589 5609 5621 5623 5631 5639 5644 5650 5656 5662 5666 5673 5679 5685 5689 5695 5698 5701 5704 5706 5708 5710 5711 5711 5711 5711 5711 5711 5710 5709 5707 5704 5701 5697 5694 5689 5684 5678 5673 5668 5662 5656
5583 5577 5586 5576 5573 5570 5572 5580 5590 5598 5608 5616 5624 5631 5637 5643 5649 5656 5663 5671 5677 5681 5687 5691 5694 5697 5700 5702 5704 5705 5704 5704 5704 5704 5703 5702 5700 5698 5695 5691 5687 5683 5678 5673 5668 5662 5656 5649 5643
5575 5573 5570 5568 5564 5560 5565 5569 5576 5587 5594 5603 5611 5619 5623 5630 5638 5646 5654 5662 5670 5675 5679 5683 5687 5690 5693 5695 5697 5697 5696 5696 5696 5696 5696 5694 5692 5689 5686 5682 5677 5672 5667 5661 5656 5649 5643 5636 5628
5568 5563 5560 5558 5555 5552 5554 5558 5569 5573 5580 5590 5600 5609 5615 5623 5631 5637 5646 5655 5663 5668 5672 5676 5680 5684 5686 5688 5689 5689 5689 5689 5689 5689 5687 5685 5683 5680 5676 5671 5667 5661 5655 5650 5644 5637 5630 5623 5615
5559 5555 5550 5547 5546 5545 5545 5545 5556 5563 5569 5578 5588 5599 5609 5617 5625 5632 5640 5648 5654 5661 5666 5670 5674 5677 5679 5681 5682 5682 5682 5682 5682 5681 5679 5677 5674 5670 5666 5661 5656 5650 5644 5638 5632 5625 5617 5609 5600